| time (UTC) | temp F | wind direction | speed MPH | gust MPH | rain 1hr in | rain 24hr in | rain mn in | humidity % | barometer mb |
| 20260831094841 | 87 | 211 | 3.0 | 6.0 | 0.00 | 0.00 | 0.00 | 73 | 1013.7 |
| 20260831094335 | 87 | 203 | 3.0 | 6.0 | 0.00 | 0.00 | 0.00 | 73 | 1013.7 |
| 20260831093819 | 87 | 2 | 2.0 | 8.0 | 0.00 | 0.00 | 0.00 | 73 | 1013.7 |
| 20260831093317 | 87 | 224 | 3.0 | 8.0 | 0.00 | 0.00 | 0.00 | 73 | 1013.6 |
| 20260831092801 | 87 | 226 | 3.0 | 8.0 | 0.00 | 0.00 | 0.00 | 73 | 1013.7 |
| 20260831092306 | 87 | 174 | 3.0 | 8.0 | 0.00 | 0.00 | 0.00 | 73 | 1013.6 |
| 20260831091745 | 87 | 2 | 3.0 | 8.0 | 0.00 | 0.00 | 0.00 | 73 | 1013.5 |
| 20260831090614 | 87 | 180 | 3.0 | 6.0 | 0.00 | 0.00 | 0.00 | 73 | 1013.5 |
| 20260831090115 | 87 | 207 | 3.0 | 6.0 | 0.00 | 0.00 | 0.00 | 73 | 1013.6 |
| 20260831085555 | 87 | 188 | 3.0 | 7.0 | 0.00 | 0.00 | 0.00 | 72 | 1013.7 |
| 20260831085039 | 87 | 184 | 3.0 | 7.0 | 0.00 | 0.00 | 0.00 | 72 | 1013.6 |
| 20260831084540 | 87 | 213 | 3.0 | 7.0 | 0.00 | 0.00 | 0.00 | 72 | 1013.6 |
| 20260831084047 | 87 | 202 | 3.0 | 7.0 | 0.00 | 0.00 | 0.00 | 72 | 1013.7 |
| 20260831083529 | 87 | 2 | 3.0 | 8.0 | 0.00 | 0.00 | 0.00 | 73 | 1013.7 |
| 20260831083027 | 87 | 220 | 3.0 | 8.0 | 0.00 | 0.00 | 0.00 | 73 | 1013.8 |
| 20260831082516 | 87 | 2 | 4.0 | 8.0 | 0.00 | 0.00 | 0.00 | 73 | 1013.8 |
| 20260831081958 | 87 | 2 | 3.0 | 8.0 | 0.00 | 0.00 | 0.00 | 72 | 1013.9 |
| 20260831081450 | 87 | 2 | 4.0 | 6.0 | 0.00 | 0.00 | 0.00 | 73 | 1014.0 |
| 20260831080320 | 87 | 2 | 4.0 | 8.0 | 0.00 | 0.00 | 0.00 | 72 | 1014.0 |
| 20260831075820 | 87 | 220 | 4.0 | 8.0 | 0.00 | 0.00 | 0.00 | 73 | 1013.9 |
| 20260831075307 | 87 | 2 | 4.0 | 8.0 | 0.00 | 0.00 | 0.00 | 73 | 1014.0 |
| 20260831074746 | 87 | 211 | 5.0 | 8.0 | 0.00 | 0.00 | 0.00 | 74 | 1013.9 |
| 20260831074226 | 87 | 2 | 4.0 | 8.0 | 0.00 | 0.00 | 0.00 | 74 | 1014.0 |
| 20260831073047 | 87 | 2 | 5.0 | 9.0 | 0.00 | 0.00 | 0.00 | 73 | 1013.9 |
| 20260831072530 | 88 | 211 | 5.0 | 10.0 | 0.00 | 0.00 | 0.00 | 73 | 1014.0 |
| 20260831072015 | 88 | 194 | 5.0 | 10.0 | 0.00 | 0.00 | 0.00 | 73 | 1014.0 |
| 20260831070856 | 88 | 196 | 6.0 | 10.0 | 0.00 | 0.00 | 0.00 | 73 | 1014.1 |
| 20260831070350 | 88 | 215 | 6.0 | 10.0 | 0.00 | 0.00 | 0.00 | 73 | 1014.2 |
| 20260831065842 | 88 | 196 | 6.0 | 10.0 | 0.00 | 0.00 | 0.00 | 73 | 1014.2 |
| 20260831065321 | 88 | 192 | 6.0 | 10.0 | 0.00 | 0.00 | 0.00 | 72 | 1014.2 |
| 20260831064804 | 88 | 202 | 6.0 | 10.0 | 0.00 | 0.00 | 0.00 | 73 | 1014.1 |
| 20260831064259 | 88 | 2 | 7.0 | 10.0 | 0.00 | 0.00 | 0.00 | 72 | 1014.3 |
| 20260831063802 | 88 | 2 | 7.0 | 10.0 | 0.00 | 0.00 | 0.00 | 72 | 1014.3 |
| 20260831063248 | 88 | 188 | 6.0 | 10.0 | 0.00 | 0.00 | 0.00 | 73 | 1014.3 |
| 20260831062725 | 88 | 2 | 7.0 | 10.0 | 0.00 | 0.00 | 0.00 | 72 | 1014.4 |
| 20260831062225 | 88 | 2 | 7.0 | 12.0 | 0.00 | 0.00 | 0.00 | 73 | 1014.3 |
| 20260831061715 | 88 | 2 | 8.0 | 12.0 | 0.00 | 0.00 | 0.00 | 72 | 1014.3 |
| 20260831061221 | 88 | 181 | 8.0 | 13.0 | 0.00 | 0.00 | 0.00 | 73 | 1014.4 |
| 20260831060702 | 88 | 198 | 8.0 | 13.0 | 0.00 | 0.00 | 0.00 | 73 | 1014.4 |
| 20260831060207 | 88 | 200 | 7.0 | 13.0 | 0.00 | 0.00 | 0.00 | 73 | 1014.4 |
| 20260831055703 | 88 | 202 | 7.0 | 13.0 | 0.00 | 0.00 | 0.00 | 73 | 1014.4 |
| 20260831055157 | 88 | 2 | 7.0 | 12.0 | 0.00 | 0.00 | 0.00 | 73 | 1014.5 |
| 20260831054643 | 88 | 159 | 7.0 | 12.0 | 0.00 | 0.00 | 0.00 | 72 | 1014.4 |
| 20260831054142 | 88 | 203 | 7.0 | 10.0 | 0.00 | 0.00 | 0.00 | 72 | 1014.5 |
| 20260831053638 | 88 | 188 | 7.0 | 11.0 | 0.00 | 0.00 | 0.00 | 72 | 1014.4 |
| 20260831053124 | 88 | 179 | 7.0 | 11.0 | 0.00 | 0.00 | 0.00 | 72 | 1014.4 |
| 20260831052617 | 88 | 2 | 6.0 | 11.0 | 0.00 | 0.00 | 0.00 | 72 | 1014.4 |
| 20260831052119 | 88 | 207 | 6.0 | 11.0 | 0.00 | 0.00 | 0.00 | 72 | 1014.3 |
| 20260831050952 | 88 | 2 | 6.0 | 11.0 | 0.00 | 0.00 | 0.00 | 72 | 1014.4 |
| 20260831050454 | 88 | 204 | 6.0 | 10.0 | 0.00 | 0.00 | 0.00 | 71 | 1014.4 |
| 20260831045955 | 88 | 2 | 6.0 | 10.0 | 0.00 | 0.00 | 0.00 | 71 | 1014.4 |
| 20260831045438 | 88 | 173 | 7.0 | 10.0 | 0.00 | 0.00 | 0.00 | 72 | 1014.3 |
| 20260831044313 | 88 | 133 | 7.0 | 11.0 | 0.00 | 0.00 | 0.00 | 71 | 1014.3 |
| 20260831043819 | 88 | 2 | 6.0 | 11.0 | 0.00 | 0.00 | 0.00 | 71 | 1014.3 |
| 20260831043322 | 88 | 2 | 6.0 | 11.0 | 0.00 | 0.00 | 0.00 | 72 | 1014.3 |
| 20260831042147 | 88 | 183 | 6.0 | 10.0 | 0.00 | 0.00 | 0.00 | 73 | 1014.2 |
| 20260831041653 | 88 | 2 | 7.0 | 10.0 | 0.00 | 0.00 | 0.00 | 72 | 1014.2 |
| 20260831040413 | 88 | 183 | 6.0 | 10.0 | 0.00 | 0.00 | 0.00 | 72 | 1014.2 |
| 20260831035917 | 88 | 2 | 6.0 | 10.0 | 0.00 | 0.00 | 0.00 | 72 | 1014.2 |
| 20260831035355 | 88 | 185 | 6.0 | 10.0 | 0.00 | 0.00 | 0.00 | 72 | 1014.2 |
| 20260831034215 | 88 | 189 | 7.0 | 11.0 | 0.00 | 0.00 | 0.00 | 72 | 1014.1 |
| 20260831033704 | 88 | 184 | 6.0 | 11.0 | 0.00 | 0.00 | 0.00 | 72 | 1014.1 |
| 20260831033201 | 88 | 206 | 7.0 | 11.0 | 0.00 | 0.00 | 0.00 | 72 | 1014.1 |
| 20260831032649 | 88 | 182 | 7.0 | 11.0 | 0.00 | 0.00 | 0.00 | 72 | 1014.0 |
| 20260831031530 | 88 | 197 | 6.0 | 10.0 | 0.00 | 0.00 | 0.00 | 72 | 1014.0 |
| 20260831031013 | 88 | 194 | 7.0 | 10.0 | 0.00 | 0.00 | 0.00 | 71 | 1013.9 |
| 20260831030511 | 88 | 180 | 6.0 | 10.0 | 0.00 | 0.00 | 0.00 | 72 | 1013.9 |
| 20260831030004 | 88 | 196 | 6.0 | 9.0 | 0.00 | 0.00 | 0.00 | 72 | 1013.9 |
| 20260831025455 | 88 | 2 | 6.0 | 9.0 | 0.00 | 0.00 | 0.00 | 71 | 1013.9 |
| 20260831024324 | 88 | 169 | 5.0 | 9.0 | 0.00 | 0.00 | 0.00 | 71 | 1013.7 |
| 20260831023133 | 88 | 184 | 6.0 | 9.0 | 0.00 | 0.00 | 0.00 | 71 | 1013.5 |
| 20260831022626 | 88 | 187 | 6.0 | 9.0 | 0.00 | 0.00 | 0.00 | 71 | 1013.5 |
| 20260831022115 | 88 | 190 | 5.0 | 8.0 | 0.00 | 0.00 | 0.00 | 71 | 1013.5 |
| 20260831021606 | 88 | 196 | 5.0 | 11.0 | 0.00 | 0.00 | 0.00 | 71 | 1013.3 |
| 20260831021102 | 88 | 199 | 6.0 | 11.0 | 0.00 | 0.00 | 0.00 | 71 | 1013.2 |
| 20260831020556 | 88 | 175 | 6.0 | 11.0 | 0.00 | 0.00 | 0.00 | 71 | 1013.2 |
| 20260831015543 | 88 | 191 | 5.0 | 8.0 | 0.00 | 0.00 | 0.00 | 71 | 1013.1 |
| 20260831015030 | 88 | 2 | 5.0 | 9.0 | 0.00 | 0.00 | 0.00 | 71 | 1013.1 |
| 20260831014509 | 88 | 175 | 5.0 | 9.0 | 0.00 | 0.00 | 0.00 | 71 | 1013.0 |
| 20260831013959 | 88 | 194 | 5.0 | 10.0 | 0.00 | 0.00 | 0.00 | 71 | 1013.0 |
| 20260831013439 | 88 | 198 | 5.0 | 10.0 | 0.00 | 0.00 | 0.00 | 71 | 1013.0 |
| 20260831012934 | 88 | 197 | 6.0 | 10.0 | 0.00 | 0.00 | 0.00 | 70 | 1013.1 |
| 20260831012425 | 88 | 188 | 5.0 | 10.0 | 0.00 | 0.00 | 0.00 | 70 | 1013.1 |
| 20260831011317 | 89 | 182 | 4.0 | 7.0 | 0.00 | 0.00 | 0.00 | 70 | 1013.0 |
| 20260831010807 | 88 | 209 | 4.0 | 8.0 | 0.00 | 0.00 | 0.00 | 70 | 1012.9 |
| 20260831010305 | 89 | 190 | 5.0 | 8.0 | 0.00 | 0.00 | 0.00 | 69 | 1012.8 |
| 20260831005754 | 89 | 184 | 5.0 | 10.0 | 0.00 | 0.00 | 0.00 | 69 | 1013.0 |
| 20260831005258 | 89 | 186 | 6.0 | 10.0 | 0.00 | 0.00 | 0.00 | 69 | 1012.8 |
| 20260831004747 | 89 | 188 | 6.0 | 11.0 | 0.00 | 0.00 | 0.00 | 69 | 1012.9 |
| 20260831004239 | 89 | 182 | 7.0 | 11.0 | 0.00 | 0.00 | 0.00 | 69 | 1012.8 |
| 20260831003730 | 89 | 174 | 7.0 | 11.0 | 0.00 | 0.00 | 0.00 | 69 | 1012.7 |
| 20260831003209 | 89 | 190 | 6.0 | 11.0 | 0.00 | 0.00 | 0.00 | 69 | 1012.8 |
| 20260831002702 | 90 | 188 | 5.0 | 10.0 | 0.00 | 0.00 | 0.00 | 68 | 1012.9 |
| 20260831002206 | 90 | 167 | 6.0 | 10.0 | 0.00 | 0.00 | 0.00 | 68 | 1013.1 |
| 20260831001710 | 90 | 196 | 6.0 | 10.0 | 0.00 | 0.00 | 0.00 | 67 | 1013.0 |
| 20260831001212 | 90 | 180 | 5.0 | 10.0 | 0.00 | 0.00 | 0.00 | 66 | 1013.0 |
| 20260831000652 | 90 | 138 | 5.0 | 10.0 | 0.00 | 0.00 | 0.00 | 67 | 1013.0 |
| 20260831000157 | 90 | 159 | 6.0 | 10.0 | 0.00 | 0.00 | 0.00 | 67 | 1013.0 |
| 20260830235648 | 91 | 180 | 5.0 | 10.0 | 0.00 | 0.00 | 0.00 | 66 | 1013.1 |
| 20260830235147 | 91 | 200 | 4.0 | 8.0 | 0.00 | 0.00 | 0.00 | 66 | 1013.0 |
| 20260830234642 | 91 | 159 | 5.0 | 10.0 | 0.00 | 0.00 | 0.00 | 66 | 1012.9 |
| 20260830234129 | 91 | 166 | 6.0 | 10.0 | 0.00 | 0.00 | 0.00 | 67 | 1012.9 |
| 20260830233621 | 91 | 173 | 7.0 | 10.0 | 0.00 | 0.00 | 0.00 | 66 | 1013.0 |
| 20260830233106 | 91 | 161 | 6.0 | 10.0 | 0.00 | 0.00 | 0.00 | 66 | 1013.1 |
| 20260830231932 | 92 | 204 | 5.0 | 10.0 | 0.00 | 0.00 | 0.00 | 66 | 1013.1 |
| 20260830231423 | 92 | 187 | 4.0 | 10.0 | 0.00 | 0.00 | 0.00 | 65 | 1013.0 |
| 20260830230917 | 92 | 172 | 4.0 | 10.0 | 0.00 | 0.00 | 0.00 | 66 | 1013.1 |
| 20260830225726 | 92 | 193 | 5.0 | 10.0 | 0.00 | 0.00 | 0.00 | 64 | 1013.1 |
| 20260830224602 | 92 | 161 | 4.0 | 9.0 | 0.00 | 0.00 | 0.00 | 65 | 1013.3 |
| 20260830224108 | 92 | 170 | 5.0 | 11.0 | 0.00 | 0.00 | 0.00 | 67 | 1013.4 |
| 20260830223555 | 91 | 167 | 7.0 | 11.0 | 0.00 | 0.00 | 0.00 | 66 | 1013.3 |
| 20260830223034 | 92 | 181 | 7.0 | 11.0 | 0.00 | 0.00 | 0.00 | 65 | 1013.2 |
| 20260830222518 | 92 | 172 | 6.0 | 11.0 | 0.00 | 0.00 | 0.00 | 66 | 1013.1 |
| 20260830222004 | 92 | 169 | 5.0 | 10.0 | 0.00 | 0.00 | 0.00 | 66 | 1013.2 |
| 20260830221459 | 92 | 146 | 5.0 | 10.0 | 0.00 | 0.00 | 0.00 | 66 | 1013.1 |
| 20260830220948 | 92 | 184 | 5.0 | 10.0 | 0.00 | 0.00 | 0.00 | 65 | 1013.1 |
| 20260830220448 | 93 | 109 | 5.0 | 9.0 | 0.00 | 0.00 | 0.00 | 65 | 1013.2 |
| 20260830215955 | 93 | 191 | 5.0 | 9.0 | 0.00 | 0.00 | 0.00 | 66 | 1013.2 |
| 20260830215433 | 93 | 194 | 4.0 | 10.0 | 0.00 | 0.00 | 0.00 | 66 | 1013.1 |
| 20260830214911 | 93 | 187 | 4.0 | 10.0 | 0.00 | 0.00 | 0.00 | 65 | 1013.2 |
| 20260830213739 | 93 | 139 | 5.0 | 10.0 | 0.00 | 0.00 | 0.00 | 66 | 1013.3 |
| 20260830213218 | 93 | 161 | 5.0 | 9.0 | 0.00 | 0.00 | 0.00 | 65 | 1013.3 |
| 20260830212708 | 93 | 185 | 5.0 | 9.0 | 0.00 | 0.00 | 0.00 | 65 | 1013.4 |
| 20260830212154 | 93 | 196 | 5.0 | 9.0 | 0.00 | 0.00 | 0.00 | 65 | 1013.4 |
| 20260830211632 | 93 | 146 | 5.0 | 9.0 | 0.00 | 0.00 | 0.00 | 65 | 1013.5 |
| 20260830211119 | 93 | 177 | 4.0 | 9.0 | 0.00 | 0.00 | 0.00 | 65 | 1013.4 |
| 20260830210612 | 93 | 171 | 4.0 | 9.0 | 0.00 | 0.00 | 0.00 | 65 | 1013.6 |
| 20260830205508 | 94 | 159 | 4.0 | 9.0 | 0.00 | 0.00 | 0.00 | 65 | 1013.7 |
| 20260830204951 | 93 | 167 | 4.0 | 9.0 | 0.00 | 0.00 | 0.00 | 65 | 1013.9 |
| 20260830203804 | 94 | 160 | 4.0 | 9.0 | 0.00 | 0.00 | 0.00 | 65 | 1014.0 |
| 20260830203300 | 94 | 2 | 4.0 | 9.0 | 0.00 | 0.00 | 0.00 | 64 | 1014.2 |
| 20260830202751 | 94 | 155 | 4.0 | 9.0 | 0.00 | 0.00 | 0.00 | 64 | 1014.2 |
| 20260830202254 | 94 | 150 | 4.0 | 8.0 | 0.00 | 0.00 | 0.00 | 63 | 1014.2 |
| 20260830201737 | 95 | 166 | 3.0 | 8.0 | 0.00 | 0.00 | 0.00 | 64 | 1014.3 |
| 20260830201234 | 95 | 178 | 3.0 | 8.0 | 0.00 | 0.00 | 0.00 | 64 | 1014.3 |
| 20260830195545 | 94 | 208 | 3.0 | 6.0 | 0.00 | 0.00 | 0.00 | 64 | 1014.4 |
| 20260830195047 | 94 | 173 | 3.0 | 8.0 | 0.00 | 0.00 | 0.00 | 64 | 1014.5 |
| 20260830193910 | 94 | 140 | 3.0 | 8.0 | 0.00 | 0.00 | 0.00 | 63 | 1014.8 |
| 20260830193355 | 95 | 196 | 3.0 | 8.0 | 0.00 | 0.00 | 0.00 | 63 | 1014.7 |
| 20260830192848 | 94 | 166 | 3.0 | 6.0 | 0.00 | 0.00 | 0.00 | 63 | 1014.9 |
| 20260830192349 | 94 | 177 | 3.0 | 5.0 | 0.00 | 0.00 | 0.00 | 63 | 1014.8 |
| 20260830191857 | 94 | 139 | 3.0 | 6.0 | 0.00 | 0.00 | 0.00 | 64 | 1014.9 |
| 20260830191336 | 95 | 140 | 3.0 | 6.0 | 0.00 | 0.00 | 0.00 | 64 | 1015.0 |
| 20260830190814 | 94 | 203 | 3.0 | 6.0 | 0.00 | 0.00 | 0.00 | 64 | 1015.0 |
| 20260830190312 | 94 | 2 | 3.0 | 6.0 | 0.00 | 0.00 | 0.00 | 63 | 1015.1 |
| 20260830185149 | 94 | 127 | 3.0 | 5.0 | 0.00 | 0.00 | 0.00 | 64 | 1015.2 |
| 20260830184640 | 94 | 192 | 3.0 | 5.0 | 0.00 | 0.00 | 0.00 | 64 | 1015.4 |
| 20260830184145 | 94 | 184 | 3.0 | 5.0 | 0.00 | 0.00 | 0.00 | 64 | 1015.5 |
| 20260830183637 | 95 | 176 | 2.0 | 5.0 | 0.00 | 0.00 | 0.00 | 64 | 1015.4 |
| 20260830183130 | 94 | 171 | 2.0 | 4.0 | 0.00 | 0.00 | 0.00 | 63 | 1015.4 |
| 20260830182010 | 94 | 171 | 3.0 | 6.0 | 0.00 | 0.00 | 0.00 | 64 | 1015.6 |
| 20260830181507 | 94 | 193 | 3.0 | 6.0 | 0.00 | 0.00 | 0.00 | 64 | 1015.7 |
| 20260830181001 | 94 | 152 | 3.0 | 6.0 | 0.00 | 0.00 | 0.00 | 64 | 1015.8 |
| 20260830180447 | 94 | 190 | 2.0 | 5.0 | 0.00 | 0.00 | 0.00 | 64 | 1015.9 |
| 20260830175927 | 94 | 143 | 2.0 | 5.0 | 0.00 | 0.00 | 0.00 | 65 | 1016.0 |
| 20260830175425 | 94 | 180 | 3.0 | 5.0 | 0.00 | 0.00 | 0.00 | 65 | 1016.0 |
| 20260830174926 | 94 | 172 | 2.0 | 5.0 | 0.00 | 0.00 | 0.00 | 65 | 1016.1 |
| 20260830174405 | 93 | 176 | 3.0 | 5.0 | 0.00 | 0.00 | 0.00 | 66 | 1016.1 |
| 20260830173911 | 92 | 190 | 3.0 | 5.0 | 0.00 | 0.00 | 0.00 | 66 | 1016.1 |
| 20260830173353 | 92 | 190 | 3.0 | 5.0 | 0.00 | 0.00 | 0.00 | 65 | 1016.1 |
| 20260830172211 | 92 | 179 | 3.0 | 6.0 | 0.00 | 0.00 | 0.00 | 65 | 1016.3 |
| 20260830171708 | 92 | 2 | 3.0 | 6.0 | 0.00 | 0.00 | 0.00 | 66 | 1016.4 |
| 20260830171146 | 92 | 163 | 3.0 | 6.0 | 0.00 | 0.00 | 0.00 | 65 | 1016.3 |
| 20260830170647 | 92 | 192 | 3.0 | 6.0 | 0.00 | 0.00 | 0.00 | 65 | 1016.3 |
| 20260830170126 | 93 | 2 | 3.0 | 5.0 | 0.00 | 0.00 | 0.00 | 65 | 1016.4 |
| 20260830165633 | 93 | 184 | 3.0 | 4.0 | 0.00 | 0.00 | 0.00 | 65 | 1016.3 |
| 20260830165136 | 93 | 149 | 2.0 | 4.0 | 0.00 | 0.00 | 0.00 | 65 | 1016.4 |
| 20260830164636 | 92 | 184 | 2.0 | 4.0 | 0.00 | 0.00 | 0.00 | 65 | 1016.4 |
| 20260830164140 | 92 | 162 | 3.0 | 4.0 | 0.00 | 0.00 | 0.00 | 65 | 1016.4 |
| 20260830163646 | 92 | 173 | 3.0 | 4.0 | 0.00 | 0.00 | 0.00 | 65 | 1016.3 |
| 20260830163129 | 92 | 165 | 3.0 | 4.0 | 0.00 | 0.00 | 0.00 | 64 | 1016.3 |
| 20260830162622 | 92 | 175 | 3.0 | 4.0 | 0.00 | 0.00 | 0.00 | 64 | 1016.4 |
| 20260830162100 | 92 | 178 | 2.0 | 4.0 | 0.00 | 0.00 | 0.00 | 65 | 1016.3 |
| 20260830161607 | 93 | 191 | 2.0 | 4.0 | 0.00 | 0.00 | 0.00 | 64 | 1016.3 |
| 20260830161051 | 93 | 200 | 2.0 | 4.0 | 0.00 | 0.00 | 0.00 | 65 | 1016.4 |
| 20260830160543 | 93 | 2 | 2.0 | 4.0 | 0.00 | 0.00 | 0.00 | 65 | 1016.4 |
| 20260830160026 | 93 | 192 | 2.0 | 4.0 | 0.00 | 0.00 | 0.00 | 65 | 1016.4 |
| 20260830155533 | 93 | 79 | 1.0 | 4.0 | 0.00 | 0.00 | 0.00 | 65 | 1016.3 |
| 20260830155024 | 92 | 79 | 1.0 | 3.0 | 0.00 | 0.00 | 0.00 | 66 | 1016.2 |
| 20260830154519 | 92 | 79 | 1.0 | 4.0 | 0.00 | 0.00 | 0.00 | 66 | 1016.2 |
| 20260830154015 | 91 | 79 | 1.0 | 4.0 | 0.00 | 0.00 | 0.00 | 66 | 1016.2 |
| 20260830153505 | 91 | 79 | 1.0 | 4.0 | 0.00 | 0.00 | 0.00 | 66 | 1016.1 |
| 20260830152954 | 91 | 79 | 2.0 | 4.0 | 0.00 | 0.00 | 0.00 | 67 | 1016.1 |
| 20260830152440 | 90 | 78 | 1.0 | 5.0 | 0.00 | 0.00 | 0.00 | 68 | 1016.2 |
| 20260830151935 | 90 | 79 | 1.0 | 5.0 | 0.00 | 0.00 | 0.00 | 69 | 1016.2 |
| 20260830151423 | 90 | 79 | 2.0 | 5.0 | 0.00 | 0.00 | 0.00 | 68 | 1016.1 |
| 20260830150923 | 91 | 79 | 2.0 | 5.0 | 0.00 | 0.00 | 0.00 | 67 | 1016.1 |
| 20260830150407 | 91 | 80 | 2.0 | 5.0 | 0.00 | 0.00 | 0.00 | 68 | 1016.0 |
| 20260830145859 | 91 | 79 | 1.0 | 5.0 | 0.00 | 0.00 | 0.00 | 67 | 1016.0 |
| 20260830145352 | 91 | 81 | 1.0 | 3.0 | 0.00 | 0.00 | 0.00 | 68 | 1016.1 |
| 20260830143545 | 91 | 86 | 0.0 | 2.0 | 0.00 | 0.00 | 0.00 | 68 | 1016.0 |
| 20260830143036 | 91 | 86 | 0.0 | 4.0 | 0.00 | 0.00 | 0.00 | 68 | 1015.9 |
| 20260830141901 | 90 | 210 | 0.0 | 4.0 | 0.00 | 0.00 | 0.00 | 69 | 1016.0 |
| 20260830141349 | 90 | 2 | 0.0 | 2.0 | 0.00 | 0.00 | 0.00 | 70 | 1016.0 |
| 20260830140837 | 89 | 2 | 0.0 | 0.0 | 0.00 | 0.00 | 0.00 | 71 | 1016.0 |
| 20260830140341 | 88 | 2 | 0.0 | 2.0 | 0.00 | 0.00 | 0.00 | 72 | 1015.8 |
| 20260830135836 | 88 | 2 | 0.0 | 1.0 | 0.00 | 0.00 | 0.00 | 74 | 1016.0 |
| 20260830135333 | 87 | 2 | 0.0 | 1.0 | 0.00 | 0.00 | 0.00 | 75 | 1016.0 |
| 20260830134835 | 87 | 2 | 0.0 | 0.0 | 0.00 | 0.00 | 0.00 | 76 | 1015.9 |
| 20260830133030 | 86 | 357 | 2.0 | 4.0 | 0.00 | 0.00 | 0.00 | 76 | 1015.6 |
| 20260830132511 | 86 | 357 | 2.0 | 4.0 | 0.00 | 0.00 | 0.00 | 76 | 1015.7 |
| 20260830132009 | 86 | 357 | 2.0 | 4.0 | 0.00 | 0.00 | 0.00 | 76 | 1015.7 |
| 20260830130825 | 87 | 357 | 0.0 | 3.0 | 0.00 | 0.00 | 0.00 | 76 | 1015.6 |
| 20260830130329 | 86 | 357 | 0.0 | 3.0 | 0.00 | 0.00 | 0.00 | 75 | 1015.6 |
| 20260830125150 | 86 | 292 | 0.0 | 0.0 | 0.00 | 0.00 | 0.00 | 74 | 1015.4 |
| 20260830123938 | 86 | 277 | 0.0 | 0.0 | 0.00 | 0.00 | 0.00 | 73 | 1015.4 |
| 20260830123434 | 86 | 248 | 0.0 | 2.0 | 0.00 | 0.00 | 0.00 | 73 | 1015.2 |
| 20260830122921 | 86 | 239 | 0.0 | 4.0 | 0.00 | 0.00 | 0.00 | 73 | 1015.2 |
| 20260830122420 | 86 | 229 | 0.0 | 4.0 | 0.00 | 0.00 | 0.00 | 73 | 1015.2 |
| 20260830121924 | 86 | 266 | 1.0 | 5.0 | 0.00 | 0.00 | 0.00 | 73 | 1015.1 |
| 20260830121404 | 86 | 221 | 1.0 | 5.0 | 0.00 | 0.00 | 0.00 | 73 | 1015.2 |
| 20260830120841 | 86 | 219 | 1.0 | 5.0 | 0.00 | 0.00 | 0.00 | 74 | 1015.2 |
| 20260830120330 | 86 | 210 | 1.0 | 5.0 | 0.00 | 0.00 | 0.00 | 74 | 1015.2 |
| 20260830115809 | 86 | 219 | 2.0 | 5.0 | 0.00 | 0.00 | 0.00 | 74 | 1015.0 |
| 20260830115311 | 86 | 2 | 2.0 | 6.0 | 0.00 | 0.00 | 0.00 | 74 | 1015.0 |
| 20260830114806 | 86 | 202 | 2.0 | 6.0 | 0.00 | 0.00 | 0.00 | 74 | 1015.1 |
| 20260830114247 | 86 | 219 | 2.0 | 6.0 | 0.00 | 0.00 | 0.00 | 74 | 1015.1 |
| 20260830113754 | 86 | 225 | 2.0 | 6.0 | 0.00 | 0.00 | 0.00 | 74 | 1015.0 |
| 20260830112018 | 86 | 225 | 3.0 | 7.0 | 0.00 | 0.00 | 0.00 | 75 | 1015.0 |
| 20260830111502 | 86 | 207 | 3.0 | 7.0 | 0.00 | 0.00 | 0.00 | 75 | 1015.0 |
| 20260830111003 | 86 | 189 | 3.0 | 9.0 | 0.00 | 0.00 | 0.00 | 75 | 1014.9 |
| 20260830110451 | 86 | 194 | 3.0 | 9.0 | 0.00 | 0.00 | 0.00 | 74 | 1014.9 |
| 20260830105942 | 86 | 203 | 3.0 | 9.0 | 0.00 | 0.00 | 0.00 | 75 | 1014.9 |
| 20260830105424 | 86 | 2 | 3.0 | 9.0 | 0.00 | 0.00 | 0.00 | 75 | 1014.8 |
| 20260830104907 | 86 | 191 | 3.0 | 9.0 | 0.00 | 0.00 | 0.00 | 75 | 1014.8 |
| 20260830104415 | 86 | 225 | 3.0 | 9.0 | 0.00 | 0.00 | 0.00 | 75 | 1014.8 |
| 20260830103855 | 86 | 208 | 4.0 | 9.0 | 0.00 | 0.00 | 0.00 | 75 | 1014.7 |
| 20260830103344 | 86 | 212 | 4.0 | 9.0 | 0.00 | 0.00 | 0.00 | 75 | 1014.7 |
| 20260830102841 | 86 | 207 | 4.0 | 9.0 | 0.00 | 0.00 | 0.00 | 75 | 1014.9 |
| 20260830102324 | 86 | 2 | 4.0 | 9.0 | 0.00 | 0.00 | 0.00 | 75 | 1014.9 |
| 20260830101819 | 86 | 217 | 4.0 | 9.0 | 0.00 | 0.00 | 0.00 | 75 | 1014.8 |
| 20260830100649 | 86 | 200 | 5.0 | 9.0 | 0.00 | 0.00 | 0.00 | 75 | 1014.8 |
| 20260830095528 | 86 | 2 | 4.0 | 10.0 | 0.00 | 0.00 | 0.00 | 75 | 1014.7 |